LA5PPA-1 Mjondalen NO current weather conditions

sailwx.info

Wind from 319 at 15 knots gusting 19

Air temperature -0.6° C
Dewpoint -6.7° C

Last reported at 2020-Jan-24 13:48 UTC.
Time now 2020-Jan-24 14:54 UTC

Location: N 60°34' E 009°15'.
View on Google Maps.

See reports from other nearby stations

  
Tides and Currents Weather Stations Pressure Air Temp Water Temp Dewpoint Dewpoint Depression Visibility Wind Speed Wind Dir Waves Ship Positions
date/time (UTC)wind fromknots sea level pressurealtimeterstation pressurevisibilityair tempwater tempwave heightnotes
2020-Jan-24 13:48 319 15 gusting 19 -0.6
2020-Jan-24 13:38 312 6 gusting 17 -0.6
2020-Jan-24 13:28 336 9 gusting 16 -0.6
2020-Jan-24 13:18 348 5 gusting 24 -0.6
2020-Jan-24 13:08 330 10 gusting 13 -0.6
2020-Jan-24 12:58 338 7 gusting 13 -0.6
2020-Jan-24 12:48 336 6 gusting 15 -0.6
2020-Jan-24 12:28 316 6 gusting 18 -0.6
2020-Jan-24 12:18 313 9 gusting 13 -0.6
2020-Jan-24 11:58 336 6 gusting 14 -0.0
2020-Jan-24 11:48 355 6 gusting 20 0.6
2020-Jan-24 11:38 334 7 gusting 22 0.6
2020-Jan-24 11:28 341 6 gusting 14 0.6
2020-Jan-24 11:18 305 5 gusting 16 -0.0
2020-Jan-24 11:08 291 10 gusting 15 -0.0
2020-Jan-24 10:58 289 3 gusting 11 -0.0
2020-Jan-24 10:48 316 6 gusting 16 -0.6
2020-Jan-24 10:38 317 10 gusting 19 -0.6
2020-Jan-24 10:28 323 5 gusting 12 -1.1
2020-Jan-24 10:18 327 8 gusting 10 -1.1
2020-Jan-24 10:08 324 8 gusting 14 -1.1
2020-Jan-24 09:58 330 7 gusting 14 -1.7
2020-Jan-24 09:48 317 4 gusting 13 -1.7
2020-Jan-24 09:38 333 11 gusting 22 -1.7
2020-Jan-24 09:28 305 11 gusting 22 -2.2
2020-Jan-24 09:18 326 6 gusting 15 -2.2
2020-Jan-24 08:58 315 6 gusting 16 -2.2
2020-Jan-24 08:48 306 9 gusting 14 -2.2
2020-Jan-24 08:38 315 7 gusting 12 -2.2
2020-Jan-24 08:28 312 8 gusting 13 -2.2
2020-Jan-24 08:18 341 5 gusting 9 -2.2
2020-Jan-24 07:58 327 2 gusting 11 -1.7
2020-Jan-24 07:48 351 6 gusting 13 -1.7
2020-Jan-24 07:38 336 7 gusting 13 -1.7
2020-Jan-24 07:28 305 9 gusting 14 -1.7
2020-Jan-24 07:18 327 4 gusting 12 -1.7
2020-Jan-24 07:08 333 7 gusting 13 -1.1
2020-Jan-24 06:58 306 10 gusting 15 -1.1
2020-Jan-24 06:48 329 6 gusting 16 -1.1
2020-Jan-24 06:38 312 10 gusting 15 -1.1
2020-Jan-24 06:28 327 6 gusting 16 -1.1
2020-Jan-24 06:18 320 11 gusting 19 -1.1
2020-Jan-24 06:08 337 4 gusting 13 -1.1
2020-Jan-24 05:58 312 10 gusting 16 -0.6
2020-Jan-24 05:38 322 7 gusting 19 -0.6
2020-Jan-24 05:28 029 2 gusting 16 -0.6
2020-Jan-24 05:18 291 13 gusting 20 -0.6
2020-Jan-24 05:08 326 7 gusting 17 -0.6
2020-Jan-24 04:58 299 9 gusting 17 -0.6
2020-Jan-24 04:48 340 4 gusting 19 -0.0
2020-Jan-24 04:38 305 10 gusting 22 -0.0
2020-Jan-24 04:28 298 10 gusting 18 -0.0
2020-Jan-24 04:18 307 8 gusting 26 -0.0
2020-Jan-24 04:08 315 13 gusting 18 -0.0
2020-Jan-24 03:48 313 6 gusting 10 -0.6
2020-Jan-24 03:38 312 2 gusting 11 -0.6
2020-Jan-24 03:28 319 6 gusting 10 -0.6
2020-Jan-24 03:18 320 4 gusting 8 -0.0
2020-Jan-24 03:08 336 6 gusting 12 -0.0
2020-Jan-24 02:58 315 10 gusting 18 -0.0
2020-Jan-24 02:38 305 7 gusting 24 0.6
2020-Jan-24 02:28 320 13 gusting 26 -0.0
2020-Jan-24 02:18 329 17 gusting 29 0.6
2020-Jan-24 02:08 338 4 gusting 20 -0.0
2020-Jan-24 01:58 347 5 gusting 19 -0.0
2020-Jan-24 01:48 330 7 gusting 20 -0.0
2020-Jan-24 01:38 329 10 gusting 13 -0.0
2020-Jan-24 01:18 292 13 gusting 21 0.6
2020-Jan-24 01:08 322 7 gusting 18 0.6
2020-Jan-24 00:58 306 9 gusting 14 0.6
2020-Jan-24 00:48 319 9 gusting 13 0.6
2020-Jan-24 00:38 313 9 gusting 16 0.6
2020-Jan-24 00:28 312 8 gusting 19 1.1
2020-Jan-24 00:18 303 7 gusting 19 1.1
2020-Jan-24 00:08 355 6 gusting 14 1.1
2020-Jan-23 23:48 343 6 gusting 23 1.7
2020-Jan-23 23:38 333 5 gusting 13 1.7
2020-Jan-23 23:28 309 3 gusting 7 1.7
2020-Jan-23 23:18 307 4 gusting 12 1.7
2020-Jan-23 22:48 334 3 gusting 8 1.1
2020-Jan-23 22:38 317 8 gusting 10 1.1
2020-Jan-23 22:18 316 7 gusting 7 1.7
2020-Jan-23 22:08 309 4 gusting 10 1.7
2020-Jan-23 21:48 295 8 gusting 14 1.7
2020-Jan-23 21:38 336 7 gusting 14 1.7
2020-Jan-23 21:28 315 5 gusting 7 1.7
2020-Jan-23 21:18 316 10 gusting 10 1.7
2020-Jan-23 21:08 323 2 gusting 6 1.7
2020-Jan-23 20:58 338 1 gusting 5 2.2
2020-Jan-23 20:48 340 7 gusting 15 2.2
2020-Jan-23 20:38 358 3 gusting 9 1.7
2020-Jan-23 20:18 313 1.7
2020-Jan-23 20:08 333 1.7
2020-Jan-23 19:58 338 5 gusting 6 1.7
2020-Jan-23 19:48 329 3 gusting 6 1.7
2020-Jan-23 19:38 350 3 gusting 8 2.2
2020-Jan-23 19:28 319 1 gusting 6 2.2
2020-Jan-23 19:18 340 3 gusting 6 2.2
2020-Jan-23 19:08 340 2 gusting 8 2.2
2020-Jan-23 18:48 326 6 gusting 6 2.2
2020-Jan-23 18:38 334 6 gusting 13 2.2
2020-Jan-23 18:28 358 1 gusting 7 1.7
2020-Jan-23 18:18 336 1.1
2020-Jan-23 18:08 151 1.1
2020-Jan-23 17:58 151 1.1
2020-Jan-23 17:48 320 1.7
2020-Jan-23 17:38 306 0 gusting 6 1.7
2020-Jan-23 17:18 344 1 gusting 13 2.2
2020-Jan-23 17:08 330 2 gusting 9 2.2
2020-Jan-23 16:58 344 3 gusting 7 2.2
2020-Jan-23 16:48 324 3 gusting 5 2.2
2020-Jan-23 16:28 336 4 gusting 6 2.2
2020-Jan-23 16:18 337 3 gusting 9 2.2
2020-Jan-23 16:08 326 2 gusting 7 2.2
2020-Jan-23 15:58 358 4 gusting 10 2.2
2020-Jan-23 15:48 323 6 gusting 7 2.2
2020-Jan-23 15:38 316 2 gusting 7 2.2
2020-Jan-23 15:28 319 4 gusting 7 2.2
2020-Jan-23 15:18 351 4 gusting 9 2.8
2020-Jan-23 15:08 307 10 gusting 14 2.8
2020-Jan-23 14:58 326 9 gusting 16 2.8
2020-Jan-23 14:48 329 7 gusting 24 2.8
2020-Jan-23 14:38 313 10 gusting 23 2.8
2020-Jan-23 14:28 309 7 gusting 16 2.8
2020-Jan-23 14:18 340 6 gusting 19 3.3
2020-Jan-23 14:08 323 7 gusting 19 3.3
2020-Jan-23 13:58 336 4 gusting 19 3.3
2020-Jan-23 13:48 302 7 gusting 22 3.3
2020-Jan-23 13:38 319 12 gusting 15 3.9
2020-Jan-23 13:28 347 7 gusting 20 3.9
2020-Jan-23 13:18 323 9 gusting 18 3.3
2020-Jan-23 13:08 315 11 gusting 20 3.3
2020-Jan-23 12:48 323 6 gusting 9 3.3
2020-Jan-23 12:38 326 4 gusting 7 3.3
2020-Jan-23 12:28 334 5 gusting 10 2.8
2020-Jan-23 12:18 295 2 gusting 10 3.3
2020-Jan-23 12:08 319 6 gusting 9 3.3
2020-Jan-23 11:58 324 6 gusting 10 3.3
2020-Jan-23 11:48 324 4 gusting 13 2.8
2020-Jan-23 11:38 326 4 gusting 9 2.8
2020-Jan-23 11:28 330 6 gusting 12 2.2
2020-Jan-23 11:18 317 5 gusting 9 2.2
2020-Jan-23 11:08 336 4 gusting 8 2.2
2020-Jan-23 10:48 320 3 gusting 9 2.2
2020-Jan-23 10:18 329 4 gusting 10 2.2
2020-Jan-23 10:08 015 5 gusting 12 2.2
2020-Jan-23 09:58 330 5 gusting 12 1.7
2020-Jan-23 09:48 322 5 gusting 12 1.7
2020-Jan-23 09:38 337 7 gusting 12 1.7
2020-Jan-23 09:28 336 6 gusting 17 1.7
2020-Jan-23 09:18 319 8 gusting 15 1.7
2020-Jan-23 09:08 316 7 gusting 14 1.7
2020-Jan-23 08:58 326 3 gusting 13 1.7
2020-Jan-23 08:48 344 6 gusting 12 1.7
2020-Jan-23 08:28 333 2 gusting 13 1.7
2020-Jan-23 08:18 327 6 gusting 14 1.7
2020-Jan-23 08:08 313 6 gusting 14 1.7
2020-Jan-23 07:58 305 3 gusting 11 1.1
2020-Jan-23 07:48 312 3 gusting 13 1.1
2020-Jan-23 07:38 331 6 gusting 6 1.1
2020-Jan-23 07:28 313 2 gusting 11 1.1
2020-Jan-23 07:18 327 6 gusting 10 1.1
2020-Jan-23 07:08 326 11 gusting 15 1.1
2020-Jan-23 06:58 329 5 gusting 13 1.1
2020-Jan-23 06:48 327 8 gusting 15 1.1
2020-Jan-23 06:38 320 5 gusting 23 1.1
2020-Jan-23 06:28 313 8 gusting 16 1.1
2020-Jan-23 06:18 315 8 gusting 16 1.1
2020-Jan-23 06:08 326 6 gusting 13 0.6
2020-Jan-23 05:58 348 5 gusting 14 1.1
2020-Jan-23 05:48 334 6 gusting 13 1.1
2020-Jan-23 05:38 336 6 gusting 15 0.6
2020-Jan-23 05:28 334 4 gusting 16 1.1
2020-Jan-23 05:18 327 5 gusting 18 0.6
2020-Jan-23 05:08 272 3 gusting 11 0.6
2020-Jan-23 04:58 337 5 gusting 9 0.6
2020-Jan-23 04:38 344 2 gusting 8 -0.0
2020-Jan-23 04:18 336 2 gusting 6 0.6
2020-Jan-23 04:08 329 0 gusting 4 0.6
2020-Jan-23 03:58 330 1 gusting 7 1.1
2020-Jan-23 03:48 323 5 gusting 12 0.6
2020-Jan-23 03:38 315 7 gusting 15 -0.0
2020-Jan-23 03:28 343 4 gusting 13 -0.0
2020-Jan-23 03:18 330 6 gusting 13 -0.6
2020-Jan-23 03:08 340 6 gusting 13 -0.6
2020-Jan-23 02:58 331 6 gusting 10 -1.1
2020-Jan-23 02:48 337 2 gusting 7 -2.2
2020-Jan-23 02:38 320 -2.2
2020-Jan-23 02:28 350 1 gusting 4 -2.2
2020-Jan-23 02:18 316 0 gusting 7 -2.2
2020-Jan-23 02:08 326 2 gusting 3 -2.8
2020-Jan-23 01:58 322 1 gusting 2 -2.8
2020-Jan-23 01:48 329 0 gusting 4 -2.8
2020-Jan-23 01:38 358 2 gusting 3 -3.3
2020-Jan-23 01:28 320 -3.3
2020-Jan-23 01:18 331 -3.3
2020-Jan-23 01:09 320 1 gusting 3 -2.8
2020-Jan-23 00:58 338 0 gusting 3 -2.8
2020-Jan-23 00:48 322 -2.8
2020-Jan-23 00:38 281 -2.8
2020-Jan-23 00:28 281 -2.2
2020-Jan-23 00:18 337 0 gusting 5 -2.2
2020-Jan-23 00:08 338 3 gusting 4 -2.8
2020-Jan-22 23:58 350 4 gusting 6 -2.8
2020-Jan-22 23:48 323 5 gusting 6 -2.8
2020-Jan-22 23:38 350 0 gusting 5 -2.8
2020-Jan-22 23:28 333 0 gusting 6 -2.8
2020-Jan-22 23:18 354 0 gusting 6 -2.8
2020-Jan-22 23:08 333 2 gusting 6 -2.8
2020-Jan-22 22:58 331 3 gusting 6 -2.8
2020-Jan-22 22:48 327 2 gusting 7 -2.8
2020-Jan-22 22:38 333 5 gusting 6 -2.8
2020-Jan-22 22:28 357 1 gusting 6 -3.3
2020-Jan-22 22:18 337 -2.8
2020-Jan-22 22:08 329 0 gusting 5 -3.3
2020-Jan-22 21:58 324 1 gusting 6 -2.8
2020-Jan-22 21:48 336 4 gusting 5 -3.3
2020-Jan-22 21:38 331 2 gusting 5 -3.3
2020-Jan-22 21:28 333 -3.3
2020-Jan-22 21:18 323 2 gusting 5 -3.3
2020-Jan-22 21:08 343 2 gusting 5 -3.3
2020-Jan-22 20:58 327 4 gusting 6 -3.3
2020-Jan-22 20:48 330 2 gusting 7 -3.3
2020-Jan-22 20:38 330 3 gusting 6 -3.3
2020-Jan-22 20:28 313 -3.3
2020-Jan-22 20:18 345 2 gusting 6 -3.9
2020-Jan-22 20:08 329 -3.9
2020-Jan-22 19:58 340 1 gusting 5 -4.4
2020-Jan-22 19:48 295 -4.4
2020-Jan-22 19:38 322 4 gusting 4 -4.4
2020-Jan-22 19:28 296 -5.0
2020-Jan-22 19:18 174 -5.0
2020-Jan-22 19:08 174 -5.0
2020-Jan-22 18:58 174 -5.0
2020-Jan-22 18:48 004 -5.0
2020-Jan-22 18:38 004 -5.0
2020-Jan-22 18:28 338 -5.0
2020-Jan-22 18:18 326 -5.0
2020-Jan-22 18:08 338 -5.0
2020-Jan-22 17:58 345 4 gusting 4 -5.0
2020-Jan-22 17:48 334 -5.0
2020-Jan-22 17:38 333 1 gusting 6 -5.0
2020-Jan-22 17:28 337 1 gusting 6 -5.0
2020-Jan-22 17:18 331 3 gusting 6 -5.6
2020-Jan-22 17:08 322 1 gusting 4 -5.6
2020-Jan-22 16:58 307 -5.6
2020-Jan-22 16:48 313 -5.0
2020-Jan-22 16:38 331 2 gusting 2 -5.0
2020-Jan-22 16:28 344 -5.0
2020-Jan-22 16:18 330 1 gusting 2 -5.0
2020-Jan-22 16:08 323 -4.4
2020-Jan-22 15:58 358 1 gusting 4 -4.4
2020-Jan-22 15:48 333 2 gusting 6 -4.4
2020-Jan-22 15:38 323 2 gusting 6 -4.4
2020-Jan-22 15:28 327 3 gusting 5 -3.9
2020-Jan-22 15:18 323 4 gusting 6 -3.9
2020-Jan-22 15:08 343 5 gusting 11 -3.9
2020-Jan-22 14:58 310 6 gusting 7 -3.3
2020-Jan-22 14:48 358 0 gusting 7 -3.3
2020-Jan-22 14:38 331 0 gusting 6 -2.8
2020-Jan-22 14:28 334 4 gusting 10 -2.8
2020-Jan-22 14:18 333 2 gusting 7 -2.8
2020-Jan-22 14:08 323 1 gusting 6 -2.8